Weather History for Angola Tri-State Steuben Coun, IN

Change the Weather History Date:

Friday, February 7, 2014

  Actual Average (KFWA) Record (KFWA)
Temperature  
Mean Temperature 0 °F 26 °F  
Max Temperature 10 °F 34 °F 62 °F (1925)
Min Temperature -9 °F 19 °F -13 °F (2014)
Degree Days  
Heating Degree Days 64 39  
Month to date heating degree days 274  
Since 1 July heating degree days 3845  
Cooling Degree Days 0 0  
Month to date cooling degree days 0  
Year to date cooling degree days 0  
Moisture  
Dew Point -11 °F    
Average Humidity 59    
Maximum Humidity 78    
Minimum Humidity 42    
Precipitation  
Precipitation 0.00 in 0.07 in 0.74 in (1933)
Month to date precipitation 0.49  
Year to date precipitation 2.75  
Snow  
Snow 0.00 in 0.30 in 2.20 in (1986)
Month to date snowfall 2.2  
Since 1 July snowfall 22.9  
Snow Depth -    
Sea Level Pressure  
Sea Level Pressure 30.31 in    
Wind  
Wind Speed 7 mph (SW)    
Max Wind Speed 17 mph    
Max Gust Speed -    
Visibility 10 miles    
Events      
T = Trace of Precipitation, MM = Missing Value Source: NWS Daily Summary

Daily Weather History Graph

Daily Weather History Graph

Search for Another Location

Airport:

Trip Planner

Search our weather history database for the weather conditions in past years. The results will help you decide how hot, cold, wet, or windy it might be!

Date:

Astronomy

Feb. 07, 2014 Rise Set
Actual Time 7:45 AM EST 6:03 PM EST
Civil Twilight 7:16 AM EST 6:32 PM EST
Nautical Twilight 6:43 AM EST 7:05 PM EST
Astronomical Twilight 6:11 AM EST 7:38 PM EST
Moon 12:13 PM EST (2/7) 2:01 AM EST (2/7)
Length of Visible Light 11h 15m
Length of Day
10h 18m
First Quarter, 59% of the Moon is Illuminated
Feb 7
First Quarter
Feb 14
Full
Feb 22
Last Quarter
Mar 1
New
Mar 8
First Quarter

Hourly Weather History & Observations

Time (EST) Temp. Windchill Dew Point Humidity Pressure Visibility Wind Dir Wind Speed Gust Speed Precip Events Conditions
12:35 AM -5.8 °F -18.4 °F -18.4 °F 55% 30.32 in 10.0 mi WSW 5.8 mph - N/A   Clear
12:55 AM -5.8 °F -18.4 °F -18.4 °F 55% 30.32 in 10.0 mi WSW 5.8 mph - N/A   Clear
1:15 AM -5.8 °F -18.4 °F -18.4 °F 55% 30.32 in 10.0 mi West 5.8 mph - N/A   Clear
1:35 AM -7.6 °F - -20.2 °F 54% 30.30 in 10.0 mi Calm Calm - N/A   Clear
1:55 AM -5.8 °F - -20.2 °F 50% 30.30 in 10.0 mi Calm Calm - N/A   Clear
2:15 AM -7.6 °F -16.5 °F -22.0 °F 50% 30.30 in 10.0 mi WSW 3.5 mph - N/A   Clear
2:35 AM -7.6 °F -18.8 °F -23.8 °F 45% 30.31 in 10.0 mi WSW 4.6 mph - N/A   Clear
2:55 AM -5.8 °F -18.4 °F -22.0 °F 46% 30.31 in 10.0 mi Variable 5.8 mph - N/A   Mostly Cloudy
3:15 AM -5.8 °F -19.9 °F -20.2 °F 50% 30.31 in 10.0 mi SW 6.9 mph - N/A   Overcast
3:35 AM -5.8 °F -18.4 °F -22.0 °F 46% 30.30 in 10.0 mi SW 5.8 mph - N/A   Overcast
3:55 AM -5.8 °F -18.4 °F -20.2 °F 50% 30.30 in 10.0 mi SW 5.8 mph - N/A   Overcast
4:15 AM -5.8 °F -16.7 °F -22.0 °F 46% 30.30 in 10.0 mi WSW 4.6 mph - N/A   Overcast
4:35 AM -4.0 °F -14.6 °F -20.2 °F 46% 30.29 in 10.0 mi WSW 4.6 mph - N/A   Overcast
4:55 AM -4.0 °F -16.3 °F -20.2 °F 46% 30.29 in 10.0 mi SW 5.8 mph - N/A   Overcast
5:15 AM -4.0 °F -14.6 °F -20.2 °F 46% 30.29 in 10.0 mi WSW 4.6 mph - N/A   Overcast
5:35 AM -5.8 °F -16.7 °F -22.0 °F 46% 30.29 in 10.0 mi SW 4.6 mph - N/A   Overcast
5:55 AM -7.6 °F -20.6 °F -23.8 °F 45% 30.29 in 10.0 mi SW 5.8 mph - N/A   Partly Cloudy
6:15 AM -9.4 °F -24.3 °F -25.6 °F 45% 30.29 in 10.0 mi SW 6.9 mph - N/A   Clear
6:35 AM -7.6 °F -18.8 °F -23.8 °F 45% 30.29 in 10.0 mi WSW 4.6 mph - N/A   Clear
6:55 AM -9.4 °F -22.7 °F -23.8 °F 49% 30.29 in 10.0 mi SW 5.8 mph - N/A   Clear
7:15 AM -7.6 °F -20.6 °F -23.8 °F 45% 30.30 in 10.0 mi SW 5.8 mph - N/A   Clear
7:35 AM -7.6 °F -20.6 °F -23.8 °F 45% 30.30 in 10.0 mi SW 5.8 mph - N/A   Clear
7:55 AM -7.6 °F -18.8 °F -22.0 °F 50% 30.30 in 10.0 mi WSW 4.6 mph - N/A   Clear
8:15 AM -7.6 °F -20.6 °F -23.8 °F 45% 30.31 in 10.0 mi WSW 5.8 mph - N/A   Clear
8:35 AM -7.6 °F -18.8 °F -23.8 °F 45% 30.32 in 10.0 mi WSW 4.6 mph - N/A   Clear
8:55 AM -5.8 °F -18.4 °F -23.8 °F 42% 30.32 in 10.0 mi SW 5.8 mph - N/A   Clear
9:15 AM -5.8 °F -19.9 °F -22.0 °F 46% 30.33 in 10.0 mi SW 6.9 mph - N/A   Clear
9:35 AM -2.2 °F -14.2 °F -9.4 °F 71% 30.33 in 10.0 mi SW 5.8 mph - N/A   Clear
9:55 AM -2.2 °F -15.6 °F -11.2 °F 66% 30.33 in 10.0 mi SW 6.9 mph - N/A   Clear
10:15 AM -0.4 °F -14.7 °F -11.2 °F 60% 30.34 in 10.0 mi SW 8.1 mph - N/A   Clear
10:35 AM 1.4 °F -11.3 °F -9.4 °F 61% 30.34 in 10.0 mi SW 6.9 mph - N/A   Clear
10:55 AM 1.4 °F -13.5 °F -5.8 °F 72% 30.35 in 10.0 mi WSW 9.2 mph - N/A   Clear
11:15 AM 3.2 °F -12.2 °F -5.8 °F 66% 30.34 in 10.0 mi SW 10.4 mph - N/A   Clear
11:35 AM 3.2 °F -11.3 °F -5.8 °F 66% 30.34 in 10.0 mi SW 9.2 mph - N/A   Clear
11:55 AM 5.0 °F -9.1 °F -5.8 °F 61% 30.33 in 10.0 mi SW 9.2 mph - N/A   Clear
12:15 PM 6.8 °F -7.8 °F -4.0 °F 61% 30.33 in 10.0 mi WSW 10.4 mph - N/A   Clear
12:35 PM 8.6 °F -7.0 °F -4.0 °F 57% 30.33 in 10.0 mi WSW 12.7 mph - N/A   Clear
12:55 PM 8.6 °F -7.0 °F -4.0 °F 57% 30.32 in 10.0 mi West 12.7 mph - N/A   Clear
1:15 PM 8.6 °F -7.7 °F -4.0 °F 57% 30.32 in 10.0 mi WSW 13.8 mph - N/A   Clear
1:35 PM 8.6 °F -7.7 °F -4.0 °F 57% 30.31 in 10.0 mi WSW 13.8 mph - N/A   Clear
1:55 PM 8.6 °F -7.7 °F -2.2 °F 62% 30.30 in 10.0 mi SW 13.8 mph - N/A   Clear
2:15 PM 8.6 °F -8.9 °F -4.0 °F 57% 30.30 in 10.0 mi SW 16.1 mph - N/A   Clear
2:35 PM 8.6 °F -9.5 °F -4.0 °F 57% 30.31 in 10.0 mi WSW 17.3 mph - N/A   Clear
2:55 PM 8.6 °F -7.0 °F -2.2 °F 62% 30.31 in 10.0 mi WSW 12.7 mph - N/A   Clear
3:15 PM 8.6 °F -7.7 °F -2.2 °F 62% 30.31 in 10.0 mi West 13.8 mph - N/A   Clear
3:35 PM 10.4 °F -4.8 °F -2.2 °F 57% 30.31 in 10.0 mi West 12.7 mph - N/A   Clear
3:55 PM 8.6 °F -7.0 °F -2.2 °F 62% 30.31 in 10.0 mi SW 12.7 mph - N/A   Clear
4:15 PM 8.6 °F -4.7 °F -2.2 °F 62% 30.31 in 10.0 mi WSW 9.2 mph - N/A   Clear
4:35 PM 8.6 °F -8.3 °F -2.2 °F 62% 30.30 in 10.0 mi WSW 15.0 mph - N/A   Clear
4:55 PM 8.6 °F -5.5 °F -2.2 °F 62% 30.30 in 10.0 mi West 10.4 mph - N/A   Clear
5:15 PM 8.6 °F -6.3 °F -2.2 °F 62% 30.30 in 10.0 mi WSW 11.5 mph - N/A   Clear
5:35 PM 6.8 °F -8.6 °F -4.0 °F 61% 30.30 in 10.0 mi SW 11.5 mph - N/A   Clear
5:55 PM 6.8 °F -7.8 °F -4.0 °F 61% 30.30 in 10.0 mi SW 10.4 mph - N/A   Clear
6:15 PM 5.0 °F -8.1 °F -4.0 °F 66% 30.30 in 10.0 mi SW 8.1 mph - N/A   Clear
6:35 PM 3.2 °F -7.8 °F -5.8 °F 66% 30.31 in 10.0 mi SW 5.8 mph - N/A   Clear
6:55 PM 3.2 °F -10.3 °F -5.8 °F 66% 30.31 in 10.0 mi SW 8.1 mph - N/A   Clear
7:15 PM 1.4 °F -8.3 °F -7.6 °F 66% 30.31 in 10.0 mi SW 4.6 mph - N/A   Clear
7:35 PM 1.4 °F -8.3 °F -7.6 °F 66% 30.31 in 10.0 mi SW 4.6 mph - N/A   Clear
7:55 PM 1.4 °F -8.3 °F -5.8 °F 72% 30.31 in 10.0 mi SW 4.6 mph - N/A   Clear
8:15 PM 1.4 °F -8.3 °F -5.8 °F 72% 30.31 in 10.0 mi SW 4.6 mph - N/A   Clear
8:35 PM -0.4 °F -10.4 °F -7.6 °F 72% 30.31 in 10.0 mi SW 4.6 mph - N/A   Clear
8:55 PM -0.4 °F -10.4 °F -7.6 °F 72% 30.31 in 10.0 mi SW 4.6 mph - N/A   Clear
9:15 PM -0.4 °F -10.4 °F -5.8 °F 78% 30.30 in 10.0 mi SW 4.6 mph - N/A   Clear
9:35 PM -0.4 °F -10.4 °F -5.8 °F 78% 30.30 in 10.0 mi SW 4.6 mph - N/A   Clear
9:55 PM -0.4 °F -10.4 °F -7.6 °F 72% 30.29 in 10.0 mi WSW 4.6 mph - N/A   Clear
10:15 PM -0.4 °F -13.4 °F -5.8 °F 78% 30.30 in 10.0 mi SW 6.9 mph - N/A   Clear
10:35 PM 1.4 °F -11.3 °F -4.0 °F 78% 30.30 in 10.0 mi WSW 6.9 mph - N/A   Clear
10:55 PM 1.4 °F -9.9 °F -4.0 °F 78% 30.30 in 10.0 mi SW 5.8 mph - N/A   Clear
11:15 PM 1.4 °F -9.9 °F -4.0 °F 78% 30.30 in 10.0 mi SW 5.8 mph - N/A   Clear
11:35 PM 3.2 °F -4.2 °F -4.0 °F 72% 30.30 in 10.0 mi WSW 3.5 mph - N/A   Clear
11:55 PM 3.2 °F -6.2 °F -4.0 °F 72% 30.30 in 10.0 mi SW 4.6 mph - N/A   Clear